Location: Moscow
(55.7500°N, 37.5830°E)
Time: 07:43:16
(UTC+03:00)

A-11 Canister half - Pass Details

Date: 06 December 2021
Orbit: 1524 x 1684 km, 47.3° (Epoch: 17 January)

Event Time Altitude Azimuth Distance (km) Brightness Sun altitude
Exits shadow 01:44:33 16° 94° (E) 3,466 10.9 -53.3°
Drops below altitude 10° 01:46:19 10° 88° (E) 3,913 11.3 -53.1°
Sets 01:49:47 0° 80° (E) 4,884 12.0 -52.9°
